EW6866 Weather Reports


time (UTC)temp
F
wind
direction
speed
knots
gust
knots
rain 1hr
in
rain 24hr
in
rain mn
in
humidity
%
barometer
mb
20260510091503 63 0 0.0 0.0 0.00 0.00 0.00 97 1011.2
20260510090004 63 0 0.0 0.0 0.00 0.00 0.00 97 1011.0
20260510084503 63 0 0.0 0.0 0.00 0.00 0.00 97 1011.0
20260510083004 62 0 0.0 0.0 0.00 0.00 0.00 97 1010.9
20260510081504 62 0 0.0 0.0 0.00 0.00 0.00 96 1010.9
20260510080004 63 0 0.0 0.0 0.00 0.00 0.00 97 1010.9
20260510074505 63 0 0.0 0.0 0.00 0.00 0.00 96 1010.9
20260510073005 63 0 0.0 0.0 0.00 0.00 0.00 96 1010.8
20260510071506 63 0 0.0 0.0 0.00 0.00 0.00 97 1010.6
20260510070005 63 0 0.0 0.0 0.00 0.00 0.00 96 1010.6
20260510064505 63 0 0.0 0.0 0.00 0.00 0.00 96 1010.6
20260510063006 63 0 0.0 0.0 0.00 0.00 0.00 96 1010.6
20260510061505 64 0 0.0 0.0 0.00 0.00 0.00 96 1010.7
20260510060006 63 0 0.0 0.0 0.00 0.00 0.00 95 1010.7
20260510054526 63 0 0.0 0.0 0.00 0.00 0.00 95 1010.9
20260510053005 63 0 0.0 0.0 0.00 0.00 0.00 95 1011.0
20260510051505 63 0 0.0 0.0 0.00 0.00 0.00 95 1011.2
20260510050006 63 0 0.0 0.0 0.00 0.00 0.00 94 1011.1
20260510044505 63 0 0.0 0.0 0.00 0.00 0.00 94 1011.1
20260510043005 63 0 0.0 0.0 0.00 0.00 0.00 93 1010.9
20260510041505 63 0 0.0 0.0 0.00 0.00 0.00 92 1010.8
20260510040006 63 0 0.0 0.0 0.00 0.00 0.00 92 1010.8
20260510034506 63 0 0.0 0.0 0.00 0.00 0.00 92 1010.7
20260510033026 63 0 0.0 0.0 0.00 0.00 0.00 91 1010.6
20260510031504 64 0 0.0 0.0 0.00 0.00 0.00 91 1010.4
20260510030005 64 0 0.0 0.0 0.00 0.00 0.00 90 1010.5
20260510024505 64 0 0.0 0.0 0.00 0.00 0.00 90 1010.4
20260510023005 64 0 0.0 0.0 0.00 0.00 0.00 90 1010.3
20260510021506 64 0 0.0 0.0 0.00 0.00 0.00 89 1010.4
20260510020005 65 0 0.0 0.0 0.00 0.00 0.00 89 1010.3
20260510014505 65 0 0.0 0.0 0.00 0.00 0.00 88 1010.2
20260510013005 66 0 0.0 0.0 0.00 0.00 0.00 87 1010.2
20260510011505 66 0 0.0 0.0 0.00 0.00 0.00 86 1010.3
20260510010005 67 0 0.0 0.0 0.00 0.00 0.00 85 1010.1
20260510004505 68 0 0.0 0.0 0.00 0.00 0.00 83 1009.9
20260510003005 68 0 0.0 0.0 0.00 0.00 0.00 82 1009.5
20260510001504 69 0 0.0 0.0 0.00 0.00 0.00 81 1009.6
20260510000005 70 0 0.0 0.0 0.00 0.00 0.00 79 1009.6
20260509234505 71 0 0.0 0.0 0.00 0.00 0.00 77 1009.4
20260509233005 72 0 0.0 0.0 0.00 0.00 0.00 75 1009.2
20260509231504 73 0 0.0 0.0 0.00 0.00 0.00 74 1009.3
20260509230004 73 163 0.0 0.9 0.00 0.00 0.00 72 1009.3
20260509224525 74 135 0.0 0.9 0.00 0.00 0.00 70 1009.2
20260509223005 74 166 0.9 4.3 0.00 0.00 0.00 69 1009.3
20260509221526 74 136 0.0 2.6 0.00 0.00 0.00 68 1009.2
20260509220005 75 239 0.0 0.9 0.00 0.00 0.00 66 1009.2
20260509214504 75 219 0.0 0.9 0.00 0.00 0.00 66 1009.1
20260509213005 75 279 0.0 2.6 0.00 0.00 0.00 65 1008.9
20260509211504 75 146 0.0 2.6 0.00 0.00 0.00 64 1009.0
20260509210005 75 215 0.0 2.6 0.00 0.00 0.00 64 1009.0
20260509204505 75 266 0.0 2.6 0.00 0.00 0.00 63 1009.1
20260509203006 76 234 0.9 2.6 0.00 0.00 0.00 60 1009.2
20260509201526 77 208 0.9 6.1 0.00 0.00 0.00 58 1009.1
20260509200005 79 151 0.9 5.2 0.00 0.00 0.00 58 1009.0
20260509194504 78 232 0.9 5.2 0.00 0.00 0.00 56 1009.2
20260509193004 76 165 0.9 4.3 0.00 0.00 0.00 57 1009.2
20260509191505 77 209 0.9 7.0 0.00 0.00 0.00 55 1009.7
20260509190005 77 156 0.9 7.0 0.00 0.00 0.00 53 1009.8
20260509184504 78 173 0.9 7.8 0.00 0.00 0.00 51 1009.9
20260509183004 77 168 0.9 4.3 0.00 0.00 0.00 51 1010.0
20260509181504 76 167 1.7 7.0 0.00 0.00 0.00 51 1010.0
20260509180005 76 192 1.7 8.7 0.00 0.00 0.00 52 1009.9
20260509174505 76 198 0.9 6.1 0.00 0.00 0.00 51 1010.0
20260509173025 76 226 1.7 7.8 0.00 0.00 0.00 51 1010.2
20260509171504 76 186 1.7 7.8 0.00 0.00 0.00 53 1010.6
20260509170004 75 177 0.9 7.8 0.00 0.00 0.00 55 1010.6
20260509164504 75 202 0.9 7.0 0.00 0.00 0.00 58 1010.4
20260509163004 75 197 1.7 7.8 0.00 0.00 0.00 59 1010.7
20260509161504 74 236 0.9 5.2 0.00 0.00 0.00 63 1010.5
20260509160005 74 213 0.9 4.3 0.00 0.00 0.00 69 1011.0
20260509154505 73 213 0.9 5.2 0.00 0.00 0.00 71 1011.8
20260509153004 72 211 0.9 3.5 0.00 0.00 0.00 74 1012.1
20260509151504 72 182 0.9 2.6 0.00 0.00 0.00 76 1012.5
20260509150004 72 170 0.9 3.5 0.00 0.00 0.00 78 1012.6
20260509144503 72 251 0.9 3.5 0.00 0.00 0.00 76 1012.8
20260509143003 72 247 0.9 3.5 0.00 0.00 0.00 77 1012.7
20260509141504 71 258 0.9 4.3 0.00 0.00 0.00 80 1012.6
20260509140005 70 268 0.9 4.3 0.00 0.00 0.00 81 1012.3
20260509134503 69 265 0.9 4.3 0.00 0.00 0.00 83 1012.5
20260509133004 67 174 0.0 1.7 0.00 0.00 0.00 86 1012.7
20260509131525 66 199 0.0 0.9 0.00 0.00 0.00 88 1012.9
20260509130025 64 241 0.0 2.6 0.00 0.00 0.00 90 1012.9
20260509124524 63 0 0.0 0.0 0.00 0.00 0.00 95 1013.0
20260509123005 62 0 0.0 0.0 0.00 0.00 0.00 96 1012.9
20260509121504 60 0 0.0 0.0 0.00 0.00 0.00 96 1013.0
20260509120004 59 0 0.0 0.0 0.00 0.00 0.00 96 1013.1
20260509114504 58 0 0.0 0.0 0.00 0.00 0.00 96 1013.0
20260509113004 57 0 0.0 0.0 0.00 0.00 0.00 96 1013.0
20260509111525 57 0 0.0 0.0 0.00 0.00 0.00 96 1013.0
20260509110004 56 0 0.0 0.0 0.00 0.00 0.00 96 1013.0
20260509104503 56 0 0.0 0.0 0.00 0.00 0.00 95 1013.3
20260509103025 56 0 0.0 0.0 0.00 0.00 0.00 95 1013.4
20260509101504 55 226 0.0 0.9 0.00 0.00 0.00 96 1013.1
20260509100005 55 0 0.0 0.0 0.00 0.00 0.00 95 1012.9
20260509094524 55 0 0.0 0.0 0.00 0.00 0.00 95 1012.9
20260509093003 56 0 0.0 0.0 0.00 0.00 0.00 95 1013.0